FENGYUN 1C DEB, 31185

Orbit data source: Space-Track

FENGYUN 1C DEB, 31185 is space debris in SSO originally from a launch on Mon, 10 May 1999 UTC launched from the Taiyaun Space Center, China (TSC). Fengyun 1C debris stems from the Chinese weather satellite Fengyun-1C, which was intentionally destroyed by a Chinese anti-satellite missile in 2007. This event dramatically increased the amount of space debris, with thousands of trackable fragments posing hazards to satellites and human spaceflight. The Fengyun 1C debris cloud has become a focal point in discussions about space sustainability and the need for international regulations to prevent the creation of new debris.

Loading next visibility...
Identifier
31185, 1999-025BJP
Orbit
SSO
Country
Flag of CNCN / PRC
Related business
Manufacturer
Unknown
Mission
Spacecraft
Bus & Motor
Unknown
Mass
Unknown
Launch date (UTC)
1999-05-10 (27 years ago)
Launch vehicle
Unknown
Launch site
Taiyaun Space Center, China (TSC)
Object type
Payload
Rocket body
Debris
Shape & HBR
Unknown shape, 0.1 m
Radar Cross Section
Small (<0.1 m²)

Expand to show TLE details & history
Last TLE update: 4 days ago

TLE from 4 days ago
0 FENGYUN 1C DEB
1 31185U 99025BJP 26161.25605882  .00000136  00000-0  11462-3 0  9992
2 31185  98.8424 157.5515 0040134 326.9796  32.8865 14.03129245648548
Epoch: 2026-06-10T06:08Z
TLE epoch observation values (Epoch: 2026-06-10T06:08:43.482Z)
Latitude
-0.00003°
Longitude
166.75351°
Altitude
861.425 km
Speed
7.434 km/s
True Right ascension
10h 30m 12s
True Declination
0° 00' 00"
Sunlit
Object was in daylight at epoch
Visualization orbit readout
Latitude
Unknown
Longitude
Unknown
Altitude
Unknown
Speed
Unknown
Apparent Right ascension
Unknown
Apparent Declination
Unknown
Sunlit
N/A
Visualization observer readout
Local Sidereal Time
14:11:56
Azimuth
Unknown
Elevation
Unknown
Doppler factor
Unknown
Orbital elements
Apogee altitude
909.297 km
Perigee altitude
851.036 km
Semi-major axis
7,258.304 km
Eccentricity
0.00401
Inclination
98.8424°
RAAN
157.5515°
Arg. of periapsis
326.9796°
True anomaly
33.13727°
Mean anomaly
32.8865°
Eccentric anomaly
33.01178°
Mean motion
3.50987 °/min
Orbital period
102.57 mins
BSTAR
0.00011462
Loading maneuver chart data...
Computing Atmospheric mass density...

Documentation

Showing up to 5 results
|